• Join FlightAware (Why Join?)
  • Login
  • US Flag 
02:00AM EDT


 

Airport Tracker/Info


-or-


 

Live Flight TrackerFlight Track Log ✈ DAL6197 ✈ 23-Apr-2013 ✈ KBUF - KLGA

Flight Track Log - Related Links

Times and Time Zones

All times are in EDT time to prevent confusion due to time zone crossing. See the DAL6197 flight status page for this flight to view local times or setup timezone preferences in your user account.

Time Position Orientation Groundspeed Altitude Reporting Facility
EDT Latitude Longitude Course Direction KTS MPH feet Rate Location/Type
12:11PM 42.9333 -78.7500 180° South 158 182 1,700  Level Buffalo TRACON
12:13PM 42.8833 -78.7500 180° South 183 211 4,700 2,520 Climbing Buffalo TRACON
12:14PM 42.8744 -78.5831 94° East 248 285 9,100 2,280 Climbing Cleveland Center
12:15PM 42.8681 -78.4672 94° East 287 330 11,300 2,100 Climbing Cleveland Center
12:16PM 42.8614 -78.3286 94° East 331 381 13,300 1,980 Climbing Cleveland Center
12:17PM 42.8542 -78.1814 94° East 366 421 15,300 1,860 Climbing Cleveland Center
12:18PM 42.8492 -78.0486 93° East 381 438 17,100 1,800 Climbing Cleveland Center
12:19PM 42.8417 -77.8931 94° East 393 452 18,900 1,740 Climbing Cleveland Center
12:20PM 42.8336 -77.7350 94° East 406 467 20,600 1,680 Climbing Cleveland Center
12:21PM 42.8317 -77.5708 91° East 418 481 22,300 1,560 Climbing Cleveland Center
12:22PM 42.8272 -77.4067 92° East 423 487 23,800 1,080 Climbing Cleveland Center
12:24PM 42.8214 -77.0578 91° East 459 528 25,600 900 Climbing Boston Center
12:25PM 42.7819 -76.8964 108° East 453 521 26,600 960 Climbing Boston Center
12:26PM 42.7128 -76.7444 122° Southeast 453 521 27,600 1,200 Climbing Boston Center
12:27PM 42.6542 -76.5878 117° Southeast 460 529 29,000 660 Climbing Boston Center
12:28PM 42.6292 -76.4083 101° East 460 529 29,000  Level Boston Center
12:29PM 42.6044 -76.2147 100° East 466 536 29,000  Level Boston Center
12:30PM 42.5789 -76.0383 101° East 471 542 29,000  Level Boston Center
12:31PM 42.5550 -75.8678 101° East 471 542 29,000 -60 Level Boston Center
12:32PM 42.5331 -75.6947 100° East 471 542 28,900 -780 Descending Boston Center
12:33PM 42.5086 -75.5214 101° East 471 542 27,500 -1,380 Descending Boston Center
12:34PM 42.4836 -75.3681 102° East 471 542 26,200 -1,320 Descending Boston Center
12:35PM 42.4500 -75.2061 106° East 460 529 24,900 -1,320 Descending Boston Center
12:36PM 42.3972 -75.0575 116° Southeast 443 510 23,600 -1,320 Descending Boston Center
12:37PM 42.3442 -74.9122 116° Southeast 431 496 22,300 -1,320 Descending Boston Center
12:38PM 42.2931 -74.7725 116° Southeast 426 490 21,000 -1,320 Descending Boston Center
12:39PM 42.2417 -74.6303 116° Southeast 420 483 19,700 -1,320 Descending Boston Center
12:40PM 42.1900 -74.4969 118° Southeast 409 471 18,400 -900 Descending Boston Center
12:41PM 42.1403 -74.3581 116° Southeast 384 442 18,000 -240 Descending Boston Center
12:42PM 42.0961 -74.2503 119° Southeast 348 400 18,000  Level Boston Center
12:43PM 42.0458 -74.1456 123° Southeast 333 383 18,000  Level Boston Center
12:44PM 41.9931 -74.0433 125° Southeast 328 377 18,000 -300 Level Boston Center
12:45PM 41.9422 -73.9417 124° Southeast 334 384 17,400 -960 Descending Boston Center
12:46PM 41.8956 -73.8486 124° Southeast 334 384 16,200 -1,140 Descending Boston Center
12:48PM 41.8106 -73.8217 167° South 287 330 14,900 -1,320 Descending Boston Center
12:49PM 41.7106 -73.8222 180° South 298 343 13,400 -1,200 Descending Boston Center
12:50PM 41.6375 -73.8317 186° South 303 349 12,500 -1,140 Descending Boston Center
12:50PM 41.5833 -73.8500 194° South 294 338 11,700 -1,200 Descending New York TRACON
12:51PM 41.5000 -73.8667 189° South 291 335 10,700 -1,020 Descending New York TRACON
12:52PM 41.4333 -73.8667 180° South 286 329 9,700 -1,320 Descending New York TRACON
12:53PM 41.3500 -73.8167 156° South 279 321 8,000 -1,500 Descending New York TRACON
12:54PM 41.3000 -73.7667 143° Southeast 262 302 6,800 -1,440 Descending New York TRACON
12:55PM 41.2333 -73.7000 143° Southeast 261 300 5,200 -1,080 Descending New York TRACON
12:56PM 41.1833 -73.6500 143° Southeast 252 290 4,600 -600 Descending New York TRACON
12:57PM 41.1167 -73.6000 151° Southeast 258 297 4,000 -300 Descending New York TRACON
12:58PM 41.0500 -73.6500 209° Southwest 275 316 4,000  Level New York TRACON
12:59PM 41.0000 -73.7167 225° Southwest 272 313 4,000  Level New York TRACON
01:00PM 40.9667 -73.8000 242° Southwest 280 322 4,000  Level New York TRACON
01:01PM 40.9167 -73.8833 232° Southwest 276 318 4,000  Level New York TRACON
01:02PM 40.8500 -73.9167 201° Southwest 265 305 4,000  Level New York TRACON
01:03PM 40.7833 -73.9667 210° Southwest 268 308 4,000  Level New York TRACON
01:04PM 40.7167 -74.0167 210° Southwest 257 296 4,000  Level New York TRACON
01:05PM 40.6833 -74.0667 229° Southwest 204 235 4,000  Level New York TRACON
01:06PM 40.6333 -74.1000 207° Southwest 199 229 4,000 -480 Level New York TRACON
01:07PM 40.6000 -74.1000 180° South 200 230 3,100 -540 Descending New York TRACON
01:08PM 40.6167 -74.0333 72° East 164 189 3,000 -60 Descending New York TRACON
01:09PM 40.6333 -74.0000 57° Northeast 164 189 3,000  Level New York TRACON